STARLINK-36677, 68178

Orbit data source: Space-Track

STARLINK-36677, 68178 is a payload satellite owned by SpaceX/Seattle (US) in LEO that was launched on Sat, 14 Mar 2026 UTC via an FALCON 9 launch vehicle from the Air Force Eastern Test Range (AFETR). Payload-class satellites include a variety of spacecraft equipped with specific instruments for various scientific and technological missions. These include communications satellites like Starlink; space stations such as the ISS; scientific satellites like the Hubble; Earth observation satellites from companies like Planet Labs, Umbra, and HawkEye 360; GPS; miniature CubeSats for education and research; and military/defense satellites.

Loading next visibility...
Identifier
68178, 2026-050M
Orbit
LEO
Country
Flag of USUS
Related business
Manufacturer
SpaceX/Seattle
Mission
Operational spacecraft
Bus & Motor
STARLINK V2MO, Unknown motor
Mass
575 kg wet, ~530 kg dry
Launch date (UTC)
2026-03-14 (3 months ago)
Launch vehicle
FALCON 9
Launch site
Air Force Eastern Test Range (AFETR)
Object type
Payload
Rocket body
Debris
Shape & HBR
Unknown shape, 17.7 m
Radar Cross Section
Large (>1 m²)

Expand to show TLE details & history
Last TLE update: 15 hours ago

TLE from 15 hours ago
0 STARLINK-36677
1 68178U 26050M   26171.23892126  .00021550  00000-0  64681-3 0  9994
2 68178  53.1571 149.0094 0001592  82.3318 277.7865 15.34414449 16405
Epoch: 2026-06-20T05:44Z
TLE epoch observation values (Epoch: 2026-06-20T05:44:02.796Z)
Latitude
-0.00007°
Longitude
154.5413°
Altitude
463.414 km
Speed
7.636 km/s
True Right ascension
09h 56m 02s
True Declination
0° 00' 00"
Sunlit
Object was in daylight at epoch
Visualization orbit readout
Latitude
Unknown
Longitude
Unknown
Altitude
Unknown
Speed
Unknown
Apparent Right ascension
Unknown
Apparent Declination
Unknown
Sunlit
N/A
Visualization observer readout
Local Sidereal Time
07:18:44
Azimuth
Unknown
Elevation
Unknown
Doppler factor
Unknown
Orbital elements
Apogee altitude
464.007 km
Perigee altitude
461.829 km
Semi-major axis
6,841.055 km
Eccentricity
0.00016
Inclination
53.1571°
RAAN
149.0094°
Arg. of periapsis
82.3318°
True anomaly
277.76842°
Mean anomaly
277.7865°
Eccentric anomaly
277.77746°
Mean motion
3.83582 °/min
Orbital period
93.85 mins
BSTAR
0.00064681
Loading maneuver chart data...
Computing Atmospheric mass density...
Loading historical data...
Loading historical data...
Loading historical data...
Loading historical data...
Loading historical data...
Loading historical data...
Loading historical data...

Documentation

Showing up to 5 results
|